This demonstration page uses our WeatherBlox Daily Observations layout. Learn more.

Left ArrowRight Arrow

Hourly Observations for December 24, 2015

Temp ( °F °C ) Dew Point ( °F °C ) Humidity (%) Winds ( mph kmh ) Pressure ( in mb ) Visibility ( mi km ) Precip ( " mm )
12:51 am 00:51 Cloudy 49 9.4 47 8.3 93 93 S 3 6 29.72 1007 10 16 N/A
1:51 am 01:51 Cloudy 49 9.4 47 8.3 93 93 E 3 6 29.73 1007 10 16 N/A
2:51 am 02:51 Cloudy with Light Rain 49 9.4 48 8.9 97 97 S 5 7 29.74 1007 4 6 0.01 0.25
3:30 am 03:30 Mostly Cloudy 47 8.3 46 7.8 97 97 N N/A 29.83 1010 9 14 0.01 0.25
3:39 am 03:39 Mostly Cloudy 48 8.9 47 8.3 96 96 N N/A 29.83 1010 9 14 0.01 0.25
3:51 am 03:51 Cloudy 48 8.9 47 8.3 96 96 N N/A 29.75 1008 10 16 0.01 0.25
4:08 am 04:08 Cloudy 48 8.9 47 8.3 96 96 N N/A 29.80 1009 10 16 N/A
4:31 am 04:31 Partly Cloudy 47 8.3 46 7.8 97 97 S 5 7 29.80 1009 9 14 N/A
4:51 am 04:51 Mostly Cloudy with Mist and Fog 47 8.3 47 8.3 100 100 SE 3 6 29.74 1007 4 6 N/A
5:01 am 05:01 Cloudy with Mist and Fog 47 8.3 46 7.8 97 97 E 5 7 29.80 1009 2 3 N/A
5:10 am 05:10 Cloudy with Fog 47 8.3 46 7.8 97 97 ENE 3 6 29.80 1009 1 1 N/A
5:20 am 05:20 Cloudy with Mist and Fog 47 8.3 47 8.3 100 100 NE 3 6 29.80 1009 2 3 N/A
5:24 am 05:24 Cloudy with Mist and Fog 47 8.3 47 8.3 100 100 N N/A 29.83 1010 5 8 N/A
5:43 am 05:43 Cloudy with Mist and Fog 48 8.9 47 8.3 96 96 ENE 5 7 29.83 1010 2 3 N/A
5:45 am 05:45 Cloudy with Mist and Fog 48 9 46 8 94 94 ENE 5 7 29.83 1010 2 3 N/A
5:51 am 05:51 Cloudy with Mist and Fog 47 8.3 47 8.3 100 100 E 5 7 29.77 1008 2 3 N/A
5:56 am 05:56 Cloudy with Mist and Fog 48 8.9 47 8.3 96 96 N N/A 29.83 1010 3 5 N/A
6:10 am 06:10 Cloudy with Mist and Fog 47 8.3 47 8.3 100 100 ENE 3 6 29.83 1010 3 4 N/A
6:17 am 06:17 Cloudy with Mist and Fog 48 8.9 47 8.3 96 96 N N/A 29.83 1010 2 3 N/A
6:51 am 06:51 Cloudy with Mist and Fog 48 8.9 47 8.3 96 96 N N/A 29.80 1009 3 4 N/A
6:58 am 06:58 Cloudy with Mist and Fog 48 8.9 47 8.3 96 96 N N/A 29.85 1011 3 5 N/A
7:26 am 07:26 Cloudy with Light Rain 48 8.9 47 8.3 96 96 N N/A 29.88 1012 3 4 0.01 0.25
7:35 am 07:35 Cloudy with Light Rain 48 8.9 47 8.3 96 96 N N/A 29.88 1012 1 2 0.01 0.25
7:51 am 07:51 Cloudy with Fog 48 8.9 47 8.3 96 96 ESE 3 6 29.82 1010 0 0 0.01 0.25
8:00 am 08:00 Cloudy with Fog 47 8.3 47 8.3 100 100 SE 3 6 29.91 1013 0 0 N/A
8:10 am 08:10 Cloudy with Light Rain 47 8.3 47 8.3 100 100 N N/A 29.91 1013 1 2 N/A
8:13 am 08:13 Cloudy with Light Rain 48 8.9 48 8.9 100 100 N N/A 29.91 1013 3 4 N/A
8:20 am 08:20 Cloudy with Mist and Fog 48 8.9 47 8.3 96 96 N N/A 29.91 1013 4 6 N/A
8:32 am 08:32 Cloudy with Light Rain 48 8.9 47 8.3 96 96 N N/A 29.91 1013 4 6 N/A
8:51 am 08:51 Cloudy with Mist and Fog 49 9.4 48 8.9 97 97 N N/A 29.87 1011 5 8 N/A
9:17 am 09:17 Cloudy with Mist and Fog 49 9.4 48 8.9 97 97 SSE 3 6 29.94 1014 4 6 N/A
9:44 am 09:44 Cloudy 50 10 48 8.9 93 93 N N/A 29.94 1014 10 16 N/A
9:51 am 09:51 Cloudy 50 10 48 8.9 93 93 N N/A 29.89 1012 10 16 N/A
10:01 am 10:01 Cloudy 50 10 49 9.4 96 96 N N/A 29.94 1014 9 14 N/A
10:29 am 10:29 Partly Cloudy 51 10.6 49 9.4 92 92 SE 6 9 29.94 1014 10 16 N/A
10:51 am 10:51 Mostly Sunny 53 11.7 49 9.4 86 86 SE 7 11 29.89 1012 10 16 N/A
11:51 am 11:51 Mostly Cloudy 55 12.8 48 8.9 77 77 ESE 5 7 29.86 1011 10 16 N/A
12:51 pm 12:51 Mostly Cloudy 58 14.4 44 6.7 60 60 VRB 5 7 29.85 1011 10 16 N/A
1:51 pm 13:51 Mostly Cloudy 60 15.6 45 7.2 58 58 NW 9 15 29.82 1010 10 16 N/A
2:51 pm 14:51 Cloudy 59 15 44 6.7 58 58 W 7 11 29.83 1010 10 16 N/A
3:51 pm 15:51 Mostly Cloudy 60 15.6 44 6.7 56 56 NW 10 17 29.84 1010 10 16 N/A
4:51 pm 16:51 Mostly Cloudy 58 14.4 44 6.7 60 60 NW 7 11 29.85 1011 10 16 N/A
5:51 pm 17:51 Clear 53 11.7 45 7.2 74 74 WNW 6 9 29.87 1011 10 16 N/A
6:51 pm 18:51 Clear 50 10 44 6.7 80 80 NNW 6 9 29.88 1012 10 16 N/A
7:51 pm 19:51 Clear 50 10 43 6.1 77 77 WNW 3 6 29.88 1012 10 16 N/A
8:51 pm 20:51 Clear 46 7.8 43 6.1 89 89 E 6 9 29.89 1012 10 16 N/A
9:51 pm 21:51 Clear 45 7.2 42 5.6 90 90 E 5 7 29.91 1013 10 16 N/A
10:51 pm 22:51 Clear 44 6.7 42 5.6 93 93 E 3 6 29.90 1013 10 16 N/A
11:51 pm 23:51 Clear 43 6.1 41 5 93 93 E 8 13 29.88 1012 10 16 N/A

Powered by AerisWeather